K2GFM Weather Reports


time (UTC)temp
C
wind
direction
speed
KPH
gust
KPH
rain 1hr
cm
rain 24hr
cm
rain mn
cm
humidity
%
barometer
mb
20260504081558 7 0 0.0 4.8 0.00 0.00 0.00 76 1016.3
20260504050133 6 0 0.0 0.0 0.00 0.00 0.00 77 1015.9
20260504044559 7 0 0.0 0.0 0.00 0.00 0.00 75 1015.8
20260504043101 7 0 0.0 0.0 0.00 0.00 0.00 74 1015.6
20260504041558 7 0 0.0 0.0 0.00 0.00 0.00 74 1015.6
20260504040105 6 0 0.0 0.0 0.00 0.00 0.00 74 1015.5
20260504034558 6 0 0.0 1.6 0.00 0.00 0.00 73 1015.5
20260504033058 6 0 0.0 0.0 0.00 0.00 0.00 73 1015.4
20260504031623 6 0 0.0 0.0 0.00 0.00 0.00 72 1015.4
20260504030058 6 0 0.0 0.0 0.00 0.00 0.00 69 1015.3
20260504024556 7 0 0.0 0.0 0.00 0.00 0.00 67 1015.3
20260504023100 7 0 0.0 0.0 0.00 0.00 0.00 64 1015.2
20260504021609 7 0 0.0 0.0 0.00 0.00 0.00 64 1015.2
20260504020106 7 0 0.0 0.0 0.00 0.00 0.00 62 1015.2
20260504014600 7 0 0.0 0.0 0.00 0.00 0.00 61 1015.2
20260504013110 8 0 0.0 0.0 0.00 0.00 0.00 61 1015.0
20260504011600 8 0 0.0 0.0 0.00 0.00 0.00 59 1015.0
20260504010115 8 0 0.0 0.0 0.00 0.00 0.00 55 1014.6
20260504004558 9 0 0.0 0.0 0.00 0.00 0.00 53 1014.4
20260504003059 10 0 0.0 0.0 0.00 0.00 0.00 49 1014.2
20260504001611 11 0 0.0 0.0 0.00 0.00 0.00 44 1014.1
20260504000105 12 0 0.0 1.6 0.00 0.00 0.00 41 1014.0
20260503234600 13 0 0.0 4.8 0.00 0.00 0.00 40 1013.9
20260503233057 13 307 0.0 9.7 0.00 0.00 0.00 36 1013.7
20260503231556 14 281 1.6 11.3 0.00 0.00 0.00 35 1013.5
20260503224557 15 346 6.4 19.3 0.00 0.00 0.00 33 1013.3
20260503223057 15 321 9.7 19.3 0.00 0.00 0.00 32 1013.2
20260503221602 15 297 4.8 16.1 0.00 0.00 0.00 32 1013.3
20260503220105 15 270 6.4 22.5 0.00 0.00 0.00 33 1013.4
20260503214600 15 285 8.0 22.5 0.00 0.00 0.00 32 1013.4
20260503213134 15 283 11.3 24.1 0.00 0.00 0.00 33 1012.9
20260503211622 15 222 6.4 25.7 0.00 0.00 0.00 33 1012.9
20260503210057 15 293 6.4 20.9 0.00 0.00 0.00 33 1012.8
20260503204621 15 274 9.7 22.5 0.00 0.00 0.00 32 1013.0
20260503203115 15 308 6.4 22.5 0.00 0.00 0.00 32 1012.9
20260503201603 14 294 9.7 29.0 0.00 0.00 0.00 32 1012.9
20260503200059 14 310 8.0 25.7 0.00 0.00 0.00 34 1012.9
20260503194557 15 299 9.7 27.4 0.00 0.00 0.00 33 1012.8
20260503193059 14 304 4.8 24.1 0.00 0.00 0.00 35 1012.9
20260503191605 14 269 11.3 27.4 0.00 0.00 0.00 36 1013.2
20260503190056 14 40 12.9 24.1 0.00 0.00 0.00 36 1013.4
20260503184628 13 303 8.0 17.7 0.00 0.00 0.00 38 1013.3
20260503183105 13 306 8.0 25.7 0.00 0.00 0.00 37 1013.6
20260503181557 13 8 8.0 24.1 0.00 0.00 0.00 36 1013.5
20260503180057 13 229 9.7 29.0 0.00 0.00 0.00 38 1013.6
20260503174625 13 329 6.4 29.0 0.00 0.00 0.00 41 1013.4
20260503173131 12 321 8.0 19.3 0.00 0.00 0.00 39 1013.7
20260503171605 12 325 6.4 17.7 0.00 0.00 0.00 39 1013.7
20260503170107 12 221 8.0 22.5 0.00 0.00 0.00 41 1013.7
20260503150107 11 305 11.3 25.7 0.00 0.00 0.00 45 1014.5
20260503130104 8 309 4.8 11.3 0.00 0.00 0.00 58 1013.9
20260503100107 6 294 3.2 9.7 0.00 0.00 0.00 73 1011.9